QPF
0.00 0.00 0.00 0.00 0.00 0.00 0.00 0.00 0.00 0.00 0.00 0.00 0.00 0.00 0.00 0.00 0.00 0.00 0.00 0.00 0.00 0.00 0.00 0.00 0.00 0.00 0.00 0.00 0.00 0.00 0.00 0.00 0.00
0.00 0.00 0.00 0.00 0.00 0.00 0.00 0.00 0.00 0.00 0.00 0.00 0.00 0.00 0.00 0.00 0.00 0.00 0.00 0.00 0.00 0.00 0.00 0.00 0.00 0.00 0.00 0.00 0.00 0.00 0.00 0.00 0.00
0.00 0.00 0.00 0.00 0.00 0.00 0.00 0.00 0.00 0.00 0.00 0.00 0.00 0.00 0.00 0.00 0.00 0.00 0.00 0.00 0.00 0.00 0.00 0.00 0.00 0.00 0.00 0.00 0.00 0.00 0.00 0.00 0.00
0.00 0.00 0.00 0.00 0.00 0.00 0.00 0.00 0.00 0.00 0.00 0.00 0.00 0.00 0.00 0.00 0.00 0.00 0.00 0.00 0.00 0.00 0.00 0.00 0.00 0.00 0.00 0.00 0.00 0.00 0.00 0.00 0.00
0.00 0.00 0.00 0.00 0.00 0.00 0.00 0.00 0.00 0.00 0.00 0.00 0.00 0.00 0.00 0.00 0.00 0.00 0.00 0.00 0.00 0.00 0.00 0.00 0.00 0.00 0.00 0.00 0.00 0.00 0.00 0.00 0.00
0.00 0.00 0.00 0.00 0.00 0.00 0.00 0.00 0.00 0.00 0.00 0.00 0.00 0.00 0.00 0.00 0.00 0.00 0.00 0.00 0.00 0.00 0.00 0.00 0.00 0.00 0.00 0.00 0.00 0.00 0.00 0.00 0.00
0.00 0.00 0.00 0.00 0.00 0.00 0.00 0.00 0.00 0.00 0.00 0.00 0.00 0.00 0.00 0.00 0.00 0.00 0.00 0.00 0.00 0.00 0.00 0.00 0.00 0.00 0.00 0.00 0.00 0.00 0.00 0.00 0.00
0.00 0.00 0.00 0.00 0.00 0.00 0.00 0.00 0.00 0.00 0.00 0.00 0.00 0.00 0.00 0.00 0.00 0.00 0.00 0.00 0.00 0.00 0.00 0.00 0.00 0.00 0.00 0.00 0.00 0.00 0.00 0.00 0.00
0.00 0.00 0.00 0.00 0.00 0.00 0.00 0.00 0.00 0.00 0.00 0.00 0.00 0.00 0.00 0.00 0.00 0.00 0.00 0.00 0.00 0.00 0.00 0.00 0.00 0.00 0.01 0.01 0.00 0.00 0.00 0.00 0.00
0.00 0.00 0.00 0.00 0.00 0.00 0.00 0.00 0.00 0.00 0.00 0.00 0.00 0.00 0.00 0.00 0.00 0.00 0.00 0.00 0.00 0.00 0.00 0.00 0.00 0.00 0.02 0.01 0.04 0.01 0.00 0.00 0.00
0.00 0.00 0.00 0.00 0.00 0.00 0.00 0.00 0.00 0.00 0.00 0.00 0.00 0.00 0.00 0.00 0.00 0.00 0.00 0.00 0.00 0.00 0.00 0.00 0.00 0.00 0.02 0.04 0.04 0.01 0.01 0.00 0.00
0.00 0.00 0.00 0.00 0.00 0.00 0.00 0.00 0.00 0.00 0.00 0.00 0.00 0.00 0.00 0.00 0.00 0.00 0.00 0.00 0.00 0.00 0.01 0.08 0.04 0.02 0.04 0.04 0.03 0.04 0.03 0.01 0.00
0.00 0.00 0.00 0.00 0.00 0.00 0.00 0.00 0.00 0.00 0.00 0.00 0.00 0.00 0.00 0.00 0.00 0.00 0.00 0.03 0.04 0.17 0.29 0.18 0.09 0.02 0.02 0.03 0.02 0.04 0.03 0.01 0.00
0.00 0.00 0.00 0.00 0.00 0.00 0.00 0.00 0.00 0.00 0.00 0.00 0.00 0.00 0.00 0.00 0.00 0.01 0.10 0.18 0.15 0.13 0.06 0.02 0.01 0.01 0.01 0.01 0.00 0.00 0.01 0.00 0.00
0.00 0.00 0.00 0.00 0.00 0.00 0.00 0.00 0.00 0.00 0.00 0.00 0.00 0.00 0.00 0.00 0.00 0.03 0.11 0.15 0.08 0.01 0.00 0.00 0.00 0.00 0.00 0.00 0.00 0.00 0.00 0.00 0.00
0.00 0.00 0.00 0.00 0.00 0.00 0.00 0.00 0.00 0.00 0.00 0.00 0.00 0.00 0.00 0.00 0.00 0.02 0.06 0.07 0.01 0.00 0.00 0.00 0.00 0.00 0.00 0.00 0.00 0.00 0.00 0.00 0.00
0.00 0.00 0.00 0.00 0.00 0.00 0.00 0.00 0.00 0.00 0.00 0.00 0.00 0.00 0.00 0.00 0.00 0.01 0.01 0.02 0.00 0.00 0.00 0.00 0.00 0.00 0.00 0.01 0.00 0.00 0.01 0.00 0.00
0.07 0.06 0.01 0.00 0.00 0.00 0.00 0.00 0.00 0.00 0.00 0.00 0.01 0.10 0.12 0.07 0.02 0.00 0.00 0.00 0.00 0.00 0.00 0.00 0.00 0.00 0.00 0.01 0.01 0.00 0.00 0.00 0.00
0.32 0.31 0.22 0.05 0.00 0.02 0.03 0.08 0.09 0.11 0.11 0.06 0.06 0.07 0.07 0.05 0.01 0.00 0.00 0.00 0.00 0.00 0.00 0.00 0.00 0.00 0.01 0.01 0.01 0.01 0.00 0.00 0.00
0.39 0.39 0.21 0.16 0.10 0.07 0.04 0.05 0.08 0.07 0.05 0.03 0.01 0.00 0.01 0.00 0.00 0.00 0.00 0.00 0.00 0.00 0.00 0.00 0.00 0.00 0.01 0.00 0.00 0.01 0.00 0.00 0.00
MSLP
996.09 996.87 997.68 998.56 999.49 1000.37 1001.52 1002.67 1003.90 1005.07 1006.30 1007.37 1008.28 1009.17 1009.93 1010.60 1011.04 1011.09 1011.37 1011.97 1012.51 1012.90 1013.23 1013.63 1014.05 1014.42 1014.86 1015.38 1015.86 1016.47 1016.85 1017.39 1017.65
994.70 995.69 996.47 997.74 998.28 999.44 1000.57 1001.67 1002.79 1003.87 1005.43 1006.58 1007.47 1008.20 1009.05 1009.73 1010.18 1010.31 1010.78 1011.39 1011.85 1012.32 1012.56 1013.02 1013.51 1014.02 1014.61 1015.06 1015.56 1016.13 1016.84 1017.34 1017.67
993.83 994.25 995.49 996.49 997.36 998.56 999.44 1000.35 1001.56 1002.95 1004.15 1005.29 1006.55 1007.49 1008.09 1008.65 1009.05 1009.48 1010.28 1010.87 1011.16 1011.52 1011.92 1012.26 1012.90 1013.50 1014.11 1014.78 1015.34 1015.87 1016.48 1016.94 1017.34
992.84 992.87 993.16 994.50 995.69 996.93 998.08 999.64 1000.81 1001.85 1003.16 1004.48 1005.60 1006.41 1007.00 1007.61 1008.08 1008.80 1009.68 1010.21 1010.48 1010.79 1011.18 1011.71 1012.26 1012.91 1013.66 1014.33 1014.97 1015.41 1015.97 1016.49 1016.92
991.13 991.43 992.34 993.43 994.64 996.08 997.61 998.58 999.91 1000.93 1002.11 1003.16 1004.18 1005.16 1006.06 1006.61 1007.27 1008.08 1008.86 1009.24 1009.71 1010.07 1010.40 1010.88 1011.53 1012.26 1012.96 1013.57 1014.08 1014.66 1015.06 1015.72 1016.25
991.78 991.40 991.92 992.74 993.98 995.39 996.63 997.63 998.78 999.96 1001.11 1002.18 1003.15 1004.15 1005.01 1005.86 1006.45 1007.12 1007.76 1008.31 1008.87 1009.20 1009.64 1010.29 1010.97 1011.52 1012.09 1012.65 1013.17 1013.80 1014.46 1015.13 1015.69
990.99 991.35 991.60 992.31 993.44 994.68 995.70 996.61 997.74 998.95 1000.07 1001.07 1002.13 1003.15 1004.06 1004.86 1005.37 1005.78 1006.51 1007.21 1007.87 1008.43 1008.96 1009.58 1010.15 1010.72 1011.37 1012.00 1012.56 1013.13 1013.91 1014.70 1015.39
990.71 991.26 991.62 992.16 992.85 993.91 994.66 995.56 996.72 997.94 998.90 999.82 1000.90 1002.03 1002.96 1003.56 1004.17 1004.82 1005.71 1006.47 1007.09 1007.72 1008.40 1008.96 1009.53 1010.36 1010.98 1011.58 1012.19 1012.88 1013.53 1014.10 1014.70
990.37 991.02 991.51 991.90 992.46 993.00 994.08 994.94 995.70 996.62 997.86 998.68 999.63 1000.73 1001.46 1002.53 1003.39 1004.19 1004.89 1005.71 1006.32 1007.02 1007.67 1008.37 1009.11 1009.83 1010.60 1011.43 1011.96 1012.47 1012.99 1013.61 1014.44
989.59 990.11 991.43 991.52 992.00 992.68 993.02 993.84 994.57 995.62 996.34 997.42 998.53 999.37 1000.38 1001.31 1002.31 1003.11 1003.92 1004.91 1005.76 1006.44 1007.13 1007.91 1008.66 1009.42 1010.21 1010.90 1011.54 1011.88 1012.34 1012.98 1013.61
989.70 990.53 990.68 991.62 991.21 991.81 992.50 993.16 993.90 994.36 995.45 996.51 997.42 998.39 999.33 1000.12 1001.12 1002.09 1003.15 1004.12 1004.99 1005.83 1006.50 1007.21 1008.08 1008.92 1009.67 1010.41 1011.10 1011.52 1012.02 1012.40 1013.01
989.19 989.95 990.47 990.69 991.23 990.73 991.13 991.90 992.69 993.87 995.06 995.67 996.58 997.47 998.16 998.93 999.91 1001.02 1002.23 1003.26 1004.47 1005.33 1006.30 1007.34 1007.75 1008.63 1009.42 1010.25 1010.97 1011.46 1011.94 1012.29 1012.67
989.04 988.90 989.17 989.56 989.80 990.26 990.86 991.05 991.56 992.75 993.80 994.89 995.62 996.30 996.97 998.08 999.25 1000.38 1001.78 1002.84 1004.11 1004.98 1005.86 1006.43 1007.38 1008.52 1009.10 1009.82 1010.62 1011.09 1011.36 1011.82 1012.45
989.00 988.80 988.64 988.67 988.72 989.19 989.87 990.56 991.20 992.04 992.60 993.58 993.89 995.46 997.01 998.13 999.25 1000.39 1001.38 1002.58 1003.86 1005.08 1005.80 1006.37 1007.15 1008.21 1008.78 1009.38 1009.92 1010.45 1011.04 1011.56 1012.05
988.83 988.72 988.45 988.43 988.80 988.74 988.97 990.01 990.66 991.54 992.10 992.92 994.48 995.60 996.90 998.16 999.30 1000.39 1001.50 1002.71 1003.73 1004.47 1005.48 1006.08 1006.44 1007.34 1008.72 1009.28 1009.74 1010.16 1010.81 1011.17 1011.66
989.48 989.08 988.79 988.68 988.85 989.45 989.41 989.29 990.25 991.62 992.42 993.22 994.72 995.97 997.23 998.46 999.64 1000.78 1001.95 1003.21 1004.18 1004.95 1005.50 1007.08 1006.82 1007.30 1008.63 1009.26 1009.69 1010.08 1010.52 1010.90 1011.47
991.20 990.67 990.16 989.46 989.32 990.26 990.89 990.70 990.96 991.61 992.54 993.40 994.81 996.35 997.68 998.90 999.93 1001.29 1002.47 1003.42 1004.30 1005.17 1005.90 1006.89 1007.09 1007.78 1008.48 1009.08 1009.44 1009.97 1010.55 1011.17 1011.90
993.13 992.70 991.27 990.53 990.19 990.60 991.64 992.08 992.38 992.59 993.53 994.07 995.70 997.05 998.24 999.04 1000.11 1001.41 1003.03 1004.30 1005.18 1005.53 1006.37 1006.69 1006.90 1007.48 1008.20 1008.87 1009.26 1009.50 1009.86 1010.45 1011.26
994.80 994.41 995.94 990.20 990.53 991.02 991.97 993.00 993.56 994.14 994.84 995.33 996.63 997.75 998.92 999.70 1000.85 1002.18 1003.28 1004.50 1005.92 1006.47 1006.88 1006.81 1006.68 1006.94 1007.48 1008.67 1008.79 1009.15 1009.77 1010.22 1010.54
995.06 992.12 993.13 992.37 991.69 991.18 992.43 993.57 994.34 995.23 995.69 996.48 997.04 998.17 999.17 1000.08 1001.15 1002.13 1002.74 1003.85 1004.87 1006.64 1007.42 1007.32 1007.52 1007.76 1007.74 1008.21 1008.58 1009.21 1009.76 1010.33 1010.63
Thickness
5884 5881 5884 5878 5880 5878 5873 5867 5860 5853 5843 5834 5831 5825 5819 5817 5815 5817 5815 5813 5808 5804 5799 5797 5794 5790 5784 5776 5770 5764 5758 5752 5745
5883 5885 5881 5876 5884 5882 5878 5872 5865 5859 5847 5838 5833 5829 5821 5818 5818 5820 5816 5814 5810 5806 5803 5801 5797 5791 5785 5778 5772 5765 5757 5749 5744
5888 5892 5887 5884 5883 5883 5884 5881 5873 5864 5856 5845 5836 5830 5825 5822 5822 5821 5818 5813 5809 5808 5805 5804 5800 5793 5786 5778 5771 5764 5757 5751 5745
5895 5897 5903 5896 5892 5892 5892 5882 5875 5868 5859 5849 5840 5835 5831 5826 5824 5821 5817 5813 5812 5810 5810 5806 5801 5794 5787 5779 5770 5763 5755 5749 5743
5909 5904 5903 5898 5896 5892 5887 5883 5876 5870 5863 5856 5850 5843 5836 5831 5826 5821 5818 5816 5815 5814 5811 5810 5804 5796 5788 5781 5774 5766 5760 5751 5744
5888 5899 5901 5901 5897 5889 5886 5885 5879 5873 5866 5860 5856 5849 5841 5834 5828 5825 5822 5821 5819 5818 5815 5809 5804 5800 5792 5784 5777 5769 5761 5752 5743
5897 5894 5896 5895 5891 5888 5888 5888 5882 5876 5869 5866 5860 5853 5846 5839 5835 5833 5830 5827 5823 5820 5817 5811 5805 5800 5792 5783 5775 5769 5761 5751 5740
5890 5889 5888 5890 5892 5889 5893 5890 5884 5879 5874 5870 5866 5857 5851 5847 5844 5838 5831 5827 5825 5822 5817 5812 5808 5798 5791 5782 5773 5765 5757 5751 5742
5883 5884 5883 5890 5891 5893 5889 5889 5887 5884 5876 5873 5869 5861 5858 5853 5847 5839 5834 5829 5824 5820 5815 5809 5803 5795 5786 5776 5770 5763 5755 5747 5737
5880 5886 5880 5885 5887 5884 5890 5888 5889 5883 5883 5879 5871 5866 5861 5857 5851 5843 5837 5830 5823 5817 5812 5805 5798 5791 5782 5774 5766 5762 5756 5747 5737
5862 5869 5874 5876 5890 5887 5886 5889 5885 5888 5883 5877 5872 5866 5863 5859 5853 5846 5838 5830 5822 5816 5811 5802 5793 5786 5778 5770 5763 5757 5750 5743 5734
5866 5868 5873 5872 5880 5892 5891 5890 5890 5882 5874 5875 5870 5865 5865 5863 5857 5848 5839 5830 5819 5813 5803 5791 5783 5779 5771 5763 5756 5747 5739 5733 5725
5864 5869 5875 5880 5885 5885 5881 5887 5891 5880 5874 5869 5865 5867 5868 5863 5856 5846 5834 5827 5816 5808 5797 5784 5779 5772 5767 5758 5748 5742 5736 5727 5718
5861 5866 5870 5878 5881 5880 5881 5883 5882 5874 5876 5869 5876 5868 5858 5852 5846 5838 5831 5821 5807 5797 5790 5785 5779 5769 5762 5753 5748 5740 5730 5720 5713
5854 5859 5862 5867 5870 5876 5881 5877 5877 5869 5868 5872 5861 5856 5849 5841 5836 5829 5821 5809 5800 5794 5786 5779 5776 5765 5750 5744 5739 5732 5720 5713 5706
5833 5841 5848 5855 5858 5859 5864 5872 5869 5858 5858 5858 5849 5843 5836 5830 5824 5817 5807 5796 5788 5780 5776 5760 5761 5753 5740 5733 5729 5722 5713 5705 5698
5809 5817 5822 5835 5841 5833 5835 5848 5851 5852 5851 5849 5839 5829 5822 5816 5809 5798 5795 5787 5781 5772 5764 5754 5750 5742 5734 5727 5721 5712 5703 5693 5684
5781 5790 5804 5813 5820 5822 5817 5823 5827 5833 5831 5834 5821 5813 5804 5799 5794 5789 5776 5763 5759 5759 5748 5749 5744 5736 5728 5719 5711 5706 5699 5690 5679
5755 5756 5735 5785 5797 5803 5804 5803 5802 5804 5805 5807 5801 5793 5786 5781 5779 5771 5763 5755 5745 5736 5732 5731 5731 5729 5723 5710 5702 5697 5687 5679 5673
5740 5741 5734 5738 5768 5786 5787 5787 5785 5784 5788 5786 5786 5780 5776 5772 5766 5761 5758 5750 5742 5725 5717 5714 5711 5708 5707 5701 5694 5684 5674 5665 5659